Location: eljas
(40.1958°N, 6.8661°W)
Time: 06:52:59
(UTC+02:00)

Daily predictions for brighter satellites

Satellite Brightness Start Highest point End
(mag) Time Altitude Azimuth Time Altitude Azimuth Time Altitude Azimuth
Meteor 2-3 Rocket 4.0 22:14:41 10° SSE 22:20:08 48° E 22:25:35 10° NNE
Meteor 2-10 Rocket 3.9 22:15:07 10° N 22:20:59 89° W 22:26:47 10° S
Meteor 1-26 Rocket 4.4 22:15:51 10° N 22:21:25 59° ENE 22:27:05 10° SSE
SL-19 R/B 4.5 22:18:52 10° SSE 22:24:30 69° ENE 22:30:35 10° N
Cosmos 2082 Rocket 3.4 22:24:19 10° NW 22:29:36 42° WSW 22:34:53 10° S
ISS -3.3 22:27:19 10° SSW 22:30:21 38° SE 22:33:24 10° ENE
OAO 2 Rocket 4.4 22:28:35 10° W 22:33:02 31° SSW 22:37:18 10° SE
YAOGAN 6 2.9 22:30:08 10° SSE 22:33:45 52° ENE 22:37:21 10° N
H-2A R/B 3.9 22:31:21 10° ESE 22:34:47 17° ENE 22:38:10 10° NNE
Cosmos 1937 Rocket 3.6 22:33:44 10° SSW 22:38:51 79° WNW 22:44:01 10° NNE
Cosmos 2084 4.3 22:36:10 10° NNW 22:39:37 32° NE 22:42:47 12° ESE
Cosmos 1833 Rocket 4.2 22:36:09 10° NW 22:41:12 34° WSW 22:46:13 10° SSW
Helios 1B rocket 2.4 22:38:50 10° NNE 22:42:56 67° ESE 22:47:01 10° S
Cosmos 1782 4.0 22:41:21 10° NNE 22:44:43 25° ENE 22:47:15 14° SE
GPS 2-04 Rocket1 3.1 22:41:18 10° WSW 22:44:47 39° S 22:47:28 14° ESE
Tiangong 2 1.1 22:42:34 10° WNW 22:45:47 84° SSW 22:48:18 15° ESE
DELTA 2 R/B(2) 3.0 22:44:01 10° WSW 22:45:54 52° S 22:46:46 21° E
Cosmos 2150 Rocket 4.4 22:40:38 10° SSW 22:46:00 72° WNW 22:51:19 10° NNE
USA 186 4.0 22:45:44 10° SW 22:47:45 20° W 22:49:52 10° NW
NOSS 3-2 (A) 4.3 22:46:10 10° SW 22:52:03 57° NW 22:58:33 10° NNE
Lacrosse 4 Rocket 3.5 22:49:22 10° N 22:52:25 18° NE 22:55:23 10° E
COSMOS 2455 2.8 22:50:27 10° SSW 22:56:25 74° ESE 23:02:26 10° NNE
Cosmos 2142 Rocket 4.5 22:53:36 10° N 22:59:44 68° E 23:05:37 11° SSE
Aureole 1 4.1 22:57:40 10° SSW 23:00:39 84° ESE 23:03:59 10° NNE
TIMED 4.5 22:56:25 10° S 23:00:44 67° ESE 23:05:05 10° NNE
Cosmos 1408 3.3 22:58:53 17° SSE 23:01:15 35° E 23:04:41 10° NNE
Resurs 01 Rocket 4.1 22:58:03 10° SW 23:01:20 20° W 23:04:39 10° NW
MetOp-A 4.4 22:57:42 15° SE 23:02:05 55° ENE 23:07:18 10° N
USA 215 3.5 22:57:34 14° ESE 23:03:13 65° NE 23:09:43 10° NW
Cosmos 1825 2.8 23:01:16 18° SSE 23:03:33 36° E 23:07:02 10° NNE
CZ-4B DEB 2.7 23:01:46 14° S 23:04:11 68° WSW 23:07:06 10° NNW
Meteor 1-29 3.1 23:02:07 10° N 23:05:38 76° WNW 23:09:05 10° SSW
Cosmos 1943 Rocket 2.5 23:01:36 10° S 23:06:51 43° ESE 23:12:05 10° NE
ERS-1 Rocket 3.0 23:03:26 14° SSE 23:07:42 73° ENE 23:12:44 10° N
Cosmos 2263 4.3 23:03:09 10° S 23:08:46 58° ESE 23:14:24 10° NNE
Helios 1A 3.8 23:06:36 10° S 23:10:37 48° W 23:14:43 10° NNW
NOSS 3-2 (C) 4.3 23:06:06 10° SW 23:11:59 55° NW 23:18:29 10° NNE
NOAA 11 4.2 23:08:10 14° SSE 23:12:53 81° ENE 23:18:24 10° N
Milstar 3 4.1 23:06:16 10° SW 23:16:07 32° S 23:20:21 20° SE
Shenzhou-11 Module 2.7 23:15:40 10° W 23:18:34 39° SSW 23:19:22 32° SSE
Cosmos 2344 3.8 23:14:33 10° S 23:21:50 48° ESE 23:29:36 10° NE
Cosmos 2369 Rocket 2.4 23:18:06 10° SSW 23:23:44 76° WNW 23:29:28 10° NNE
DNEPR-1 R/B 3.8 23:19:05 10° SSW 23:24:25 66° ESE 23:28:57 10° NE
CENTAUR R/B 2.4 23:24:35 10° SSW 23:30:30 76° ESE 23:37:16 10° NE
SPOT 1/Viking Rocket 3.8 23:29:56 27° SE 23:32:31 52° ENE 23:37:34 10° N
deb Kosmos-1763 4.3 23:31:22 10° N 23:35:06 58° ENE 23:36:08 41° SE
Okean 1-7 3.4 23:31:18 10° NNW 23:35:40 64° W 23:38:35 20° S
Meteor 1-10 Rocket 4.4 23:32:44 10° N 23:38:42 82° W 23:42:47 21° S
Landsat 7 4.5 23:37:29 29° ESE 23:39:08 39° ENE 23:43:33 10° N
Meteor 1-27 Rocket 3.9 23:33:29 10° N 23:39:13 60° ENE 23:41:55 30° SSE
Cosmos 1340 2.6 23:36:35 10° N 23:40:23 72° E 23:41:25 45° SSE
Lacrosse 5 rocket 1.8 23:38:37 10° WSW 23:42:06 51° NW 23:45:42 10° NE
SL-08 RB Rocket 3.7 23:40:35 31° SSE 23:42:49 84° ENE 23:47:31 10° N
Nimbus 7 Rocket 4.4 23:38:23 10° NNE 23:44:14 61° ESE 23:47:47 24° S
Cosmos 1269 Rocket 4.0 23:39:48 10° NNW 23:45:06 78° ENE 23:47:26 34° SSE
Cosmos 372 Rocket 3.9 23:41:41 10° SSW 23:46:49 86° WNW 23:51:58 10° NNE
Cosmos 1606 3.3 23:46:49 10° NNW 23:50:30 51° W 23:52:05 29° SSW
Cosmos 1125 Rocket 3.9 23:46:33 10° SSW 23:51:45 65° WNW 23:56:58 10° NNE
ATLAS 5 CENTAUR R/B 2.5 23:45:48 10° NNW 23:51:49 71° NE 23:54:50 33° SE
Terra 2.5 23:53:08 34° ESE 23:54:16 39° ENE 23:58:42 10° N
